FW9116 Weather Reports


Display with metric or nautical units.
time (UTC)temp
F
wind
direction
speed
MPH
gust
MPH
rain 1hr
in
rain 24hr
in
rain mn
in
humidity
%
barometer
mb
20260906022054 68 0 0.0 1.0 0.00 0.00 0.00 60 1014.9
20260906021607 68 0 0.0 1.0 0.00 0.00 0.00 60 1014.9
20260906021059 69 0 0.0 1.0 0.00 0.00 0.00 59 1014.9
20260906020557 69 0 0.0 3.0 0.00 0.00 0.00 58 1014.9
20260906020106 69 0 0.0 3.0 0.00 0.00 0.00 57 1014.9
20260906015557 70 0 0.0 2.0 0.00 0.00 0.00 57 1014.9
20260906015057 70 0 0.0 3.0 0.00 0.00 0.00 56 1014.9
20260906014606 70 0 0.0 3.0 0.00 0.00 0.00 55 1015.0
20260906014053 70 279 1.0 4.0 0.00 0.00 0.00 55 1015.1
20260906013557 71 267 1.0 5.0 0.00 0.00 0.00 54 1015.1
20260906013108 71 0 0.0 5.0 0.00 0.00 0.00 54 1015.1
20260906012553 71 259 1.0 6.0 0.00 0.00 0.00 54 1015.0
20260906012057 71 273 2.0 6.0 0.00 0.00 0.00 54 1015.1
20260906011603 71 271 2.0 7.0 0.00 0.00 0.00 53 1015.0
20260906011057 71 298 1.0 7.0 0.00 0.00 0.00 53 1015.0
20260906010557 72 308 2.0 7.0 0.00 0.00 0.00 52 1015.0
20260906005554 72 270 2.0 7.0 0.00 0.01 0.00 51 1014.9
20260906005057 72 296 1.0 7.0 0.00 0.01 0.00 52 1014.9
20260906004605 73 302 1.0 5.0 0.00 0.01 0.00 52 1015.0
20260906004054 73 297 1.0 7.0 0.00 0.01 0.00 52 1015.0
20260906003557 73 274 2.0 7.0 0.00 0.01 0.00 50 1015.0
20260906003105 74 300 2.0 7.0 0.00 0.01 0.00 49 1015.1
20260906002557 74 290 1.0 5.0 0.00 0.01 0.00 48 1015.1
20260906002057 74 25 1.0 5.0 0.00 0.01 0.00 48 1015.0
20260906001559 74 65 1.0 5.0 0.00 0.01 0.00 49 1015.1
20260906001101 74 5 1.0 4.0 0.00 0.01 0.00 51 1015.0
20260906000557 73 51 0.0 5.0 0.00 0.01 0.00 51 1015.0
20260906000111 73 30 2.0 5.0 0.00 0.01 0.00 50 1015.1
20260905235557 74 0 1.0 4.0 0.00 0.01 0.00 52 1015.1
20260905235054 73 0 0.0 4.0 0.00 0.01 0.00 51 1015.0
20260905234621 73 0 2.0 5.0 0.00 0.01 0.00 50 1014.9
20260905234053 73 319 1.0 5.0 0.00 0.01 0.00 51 1015.0
20260905233558 73 200 1.0 3.0 0.00 0.01 0.00 52 1015.0
20260905233102 73 148 0.0 5.0 0.00 0.01 0.00 51 1015.0
20260905232557 73 300 1.0 6.0 0.00 0.01 0.00 51 1015.1
20260905232057 73 299 1.0 6.0 0.00 0.01 0.00 52 1015.1
20260905231605 73 237 0.0 7.0 0.00 0.01 0.00 52 1015.1
20260905231056 72 293 1.0 7.0 0.00 0.01 0.00 51 1015.2
20260905230557 72 339 3.0 7.0 0.00 0.01 0.00 50 1015.2
20260905230106 72 317 1.0 3.0 0.00 0.01 0.00 53 1015.2
20260905225557 72 0 0.0 3.0 0.00 0.03 0.00 53 1015.2
20260905225057 71 269 1.0 4.0 0.00 0.03 0.00 53 1015.3
20260905224616 71 279 1.0 7.0 0.00 0.03 0.00 54 1015.3
20260905224058 71 279 3.0 7.0 0.00 0.03 0.00 54 1015.4
20260905223557 72 230 3.0 8.0 0.00 0.03 0.00 54 1015.4
20260905223100 72 203 3.0 8.0 0.00 0.03 0.00 54 1015.4
20260905222557 72 0 1.0 6.0 0.00 0.03 0.00 54 1015.4
20260905222057 71 254 0.0 6.0 0.00 0.03 0.00 56 1015.5
20260905221602 70 284 1.0 5.0 0.00 0.03 0.00 56 1015.5
20260905221058 70 255 1.0 6.0 0.00 0.03 0.00 57 1015.6
20260905220553 70 0 2.0 6.0 0.00 0.03 0.00 58 1015.5
20260905220118 70 0 2.0 5.0 0.00 0.03 0.00 58 1015.6
20260905215637 70 217 1.0 5.0 0.00 0.13 0.00 58 1015.6
20260905215056 70 0 1.0 6.0 0.00 0.13 0.00 57 1015.7
20260905214603 70 253 3.0 6.0 0.00 0.13 0.00 56 1015.7
20260905214055 70 242 0.0 3.0 0.00 0.13 0.00 55 1015.8
20260905213556 70 0 0.0 4.0 0.00 0.13 0.00 54 1015.8
20260905213059 70 249 1.0 4.0 0.00 0.13 0.00 55 1015.7
20260905212555 71 278 1.0 4.0 0.00 0.13 0.00 55 1015.8
20260905212056 71 0 1.0 4.0 0.00 0.13 0.00 54 1015.8
20260905211602 71 263 1.0 5.0 0.00 0.13 0.00 56 1015.9
20260905211057 70 0 2.0 5.0 0.00 0.13 0.00 56 1015.9
20260905210556 70 0 0.0 4.0 0.00 0.13 0.00 59 1015.9
20260905210108 69 281 1.0 6.0 0.00 0.13 0.00 58 1016.0
20260905205558 70 288 2.0 6.0 0.00 0.13 0.00 56 1016.0
20260905205055 71 272 1.0 3.0 0.00 0.13 0.00 56 1016.1
20260905204559 71 326 0.0 4.0 0.00 0.13 0.00 55 1016.0
20260905204055 71 0 1.0 4.0 0.00 0.13 0.00 55 1016.0
20260905203558 71 0 2.0 6.0 0.00 0.13 0.00 55 1016.1
20260905203117 71 350 1.0 6.0 0.00 0.13 0.00 57 1016.1
20260905202554 70 144 1.0 6.0 0.00 0.13 0.00 57 1016.0
20260905202056 69 99 0.0 4.0 0.00 0.13 0.00 59 1016.1
20260905201603 69 80 1.0 7.0 0.00 0.13 0.00 59 1016.0
20260905201055 69 45 2.0 7.0 0.00 0.13 0.00 59 1016.1
20260905200556 70 27 2.0 5.0 0.00 0.13 0.00 59 1016.1
20260905200107 70 211 1.0 4.0 0.00 0.13 0.00 61 1016.2
20260905195555 70 243 1.0 4.0 0.00 0.13 0.00 61 1016.1
20260905195055 69 282 1.0 8.0 0.00 0.13 0.00 63 1016.2
20260905194558 68 65 1.0 8.0 0.00 0.13 0.00 65 1016.1
20260905194055 67 63 1.0 5.0 0.00 0.13 0.00 66 1016.2
20260905193556 67 36 2.0 5.0 0.00 0.13 0.00 63 1016.3
20260905193103 68 95 2.0 5.0 0.00 0.13 0.00 62 1016.3
20260905192557 69 63 3.0 5.0 0.00 0.13 0.00 61 1016.4
20260905192055 69 0 0.0 5.0 0.00 0.13 0.00 62 1016.3
20260905191605 70 79 1.0 5.0 0.00 0.13 0.00 62 1016.4
20260905191054 70 28 1.0 5.0 0.00 0.13 0.00 60 1016.4
20260905190559 71 24 0.0 7.0 0.00 0.13 0.00 60 1016.4
20260905185600 69 17 2.0 6.0 0.00 0.13 0.00 64 1016.5
20260905185058 68 308 0.0 6.0 0.00 0.13 0.00 67 1016.4
20260905184606 68 329 2.0 6.0 0.00 0.13 0.00 67 1016.5
20260905184100 68 18 1.0 6.0 0.00 0.13 0.00 67 1016.5
20260905183601 67 5 0.0 5.0 0.00 0.13 0.00 68 1016.7
20260905183104 66 0 2.0 5.0 0.00 0.13 0.00 67 1016.7
20260905182554 67 65 1.0 4.0 0.00 0.13 0.00 68 1016.7
20260905182054 66 15 1.0 4.0 0.00 0.13 0.00 69 1016.8
20260905181602 66 0 0.0 7.0 0.00 0.13 0.00 70 1016.7
20260905181055 65 325 0.0 7.0 0.00 0.13 0.00 70 1016.8
20260905180554 65 69 3.0 7.0 0.00 0.13 0.00 71 1016.8
20260905175557 65 0 0.0 4.0 0.00 0.13 0.00 73 1016.8
20260905175058 64 285 1.0 4.0 0.00 0.13 0.00 72 1016.8
20260905174606 65 44 0.0 4.0 0.00 0.13 0.00 73 1016.9
20260905174057 64 327 1.0 5.0 0.00 0.13 0.00 74 1016.9
20260905173554 64 0 2.0 5.0 0.00 0.13 0.00 75 1016.9
20260905173102 64 0 1.0 5.0 0.00 0.13 0.00 75 1016.9
20260905172555 64 0 1.0 5.0 0.00 0.13 0.00 75 1017.0
20260905172058 63 59 2.0 5.0 0.00 0.13 0.00 76 1016.8
20260905171635 63 269 1.0 4.0 0.00 0.13 0.00 78 1016.9
20260905171057 63 40 1.0 4.0 0.00 0.13 0.00 78 1016.9
20260905170558 63 51 1.0 4.0 0.00 0.13 0.00 79 1016.8
20260905170107 63 277 0.0 4.0 0.00 0.13 0.00 80 1017.0
20260905165557 62 0 1.0 4.0 0.00 0.13 0.00 81 1017.0
20260905165057 61 0 0.0 4.0 0.00 0.13 0.00 83 1017.0
20260905164605 61 0 1.0 4.0 0.00 0.13 0.00 85 1016.9
20260905164054 60 0 0.0 3.0 0.00 0.13 0.00 87 1017.0
20260905163557 59 26 0.0 8.0 0.00 0.13 0.00 88 1016.9
20260905163105 59 0 0.0 8.0 0.00 0.13 0.00 89 1016.8
20260905162554 59 15 3.0 8.0 0.00 0.13 0.00 90 1016.7
20260905162055 58 52 2.0 5.0 0.00 0.13 0.00 91 1016.8
20260905161601 58 69 0.0 4.0 0.00 0.13 0.00 92 1016.9
20260905161058 57 70 1.0 4.0 0.00 0.13 0.00 93 1017.1
20260905160557 57 71 2.0 4.0 0.00 0.13 0.00 94 1017.2
20260905160109 57 0 0.0 2.0 0.00 0.13 0.00 95 1017.2
20260905155555 56 0 0.0 1.0 0.00 0.15 0.00 96 1017.0
20260905155057 56 0 0.0 1.0 0.00 0.15 0.00 96 1017.1
20260905154648 56 0 0.0 2.0 0.00 0.15 0.00 96 1017.1
20260905154054 55 0 0.0 2.0 0.00 0.15 0.00 96 1017.1
20260905153553 55 61 0.0 2.0 0.00 0.15 0.00 96 1017.1
20260905153104 55 0 0.0 1.0 0.00 0.15 0.00 96 1017.1
20260905152553 55 0 0.0 2.0 0.00 0.15 0.00 96 1017.1
20260905152053 55 0 0.0 2.0 0.00 0.15 0.00 96 1017.1
20260905151604 55 0 0.0 0.0 0.00 0.15 0.00 96 1016.9
20260905151054 54 0 0.0 0.0 0.00 0.15 0.00 96 1017.1
20260905150555 54 0 0.0 0.0 0.00 0.15 0.00 96 1017.0
20260905150105 54 0 0.0 0.0 0.00 0.15 0.00 96 1017.0
20260905145554 54 0 0.0 0.0 0.00 0.15 0.00 96 1017.2
20260905145052 54 0 0.0 0.0 0.00 0.15 0.00 96 1017.1
20260905144609 54 0 0.0 1.0 0.00 0.15 0.00 96 1017.0
20260905144052 53 0 0.0 2.0 0.00 0.15 0.00 96 1017.0
20260905143555 53 0 0.0 2.0 0.00 0.15 0.00 96 1017.0
20260905143106 53 0 0.0 1.0 0.00 0.15 0.00 96 1017.0
20260905142555 53 0 0.0 1.0 0.00 0.15 0.00 96 1017.0
20260905142055 53 0 0.0 0.0 0.00 0.15 0.00 95 1016.9
20260905141601 52 0 0.0 0.0 0.00 0.15 0.00 95 1016.9
20260905141053 52 0 0.0 0.0 0.00 0.15 0.00 95 1016.9
20260905140554 52 0 0.0 1.0 0.00 0.15 0.00 95 1016.9
20260905140104 52 0 0.0 1.0 0.00 0.15 0.00 95 1016.8
20260905135554 52 0 0.0 1.0 0.00 0.15 0.00 95 1016.9
20260905135057 52 0 0.0 1.0 0.00 0.15 0.00 95 1016.9
20260905134607 53 0 0.0 1.0 0.00 0.15 0.00 95 1016.7
20260905134057 53 0 0.0 1.0 0.00 0.15 0.00 95 1016.9
20260905133555 53 0 0.0 1.0 0.00 0.15 0.00 95 1016.8
20260905133103 53 0 0.0 1.0 0.00 0.15 0.00 95 1016.7
20260905132554 53 44 0.0 2.0 0.00 0.15 0.00 95 1016.7
20260905132054 53 0 0.0 2.0 0.00 0.15 0.00 95 1016.6
20260905131558 53 33 0.0 2.0 0.00 0.15 0.00 95 1016.6
20260905131055 53 0 0.0 0.0 0.00 0.15 0.00 95 1016.6
20260905130559 53 0 0.0 1.0 0.00 0.15 0.00 95 1016.7
20260905130101 53 0 0.0 1.0 0.00 0.15 0.00 95 1016.7
20260905125555 53 0 0.0 1.0 0.00 0.15 0.00 95 1016.5
20260905125055 53 0 0.0 1.0 0.00 0.15 0.00 95 1016.5
20260905124602 53 0 0.0 2.0 0.00 0.15 0.00 95 1016.3
20260905124055 53 0 0.0 2.0 0.00 0.15 0.00 95 1016.4
20260905123556 54 0 0.0 3.0 0.00 0.15 0.00 95 1016.4
20260905123103 54 0 0.0 3.0 0.00 0.15 0.00 95 1016.4
20260905122556 54 85 0.0 3.0 0.00 0.15 0.00 95 1016.5
20260905122056 54 0 0.0 2.0 0.00 0.15 0.00 95 1016.5
20260905121608 54 0 0.0 3.0 0.00 0.15 0.00 95 1016.5
20260905121056 54 0 0.0 3.0 0.00 0.15 0.00 95 1016.5
20260905120556 54 0 0.0 3.0 0.00 0.15 0.00 95 1016.4
20260905115555 54 0 0.0 0.0 0.00 0.19 0.00 95 1016.4
20260905115056 54 0 0.0 0.0 0.00 0.19 0.00 95 1016.4
20260905114609 54 0 0.0 0.0 0.00 0.19 0.00 95 1016.3
20260905114057 54 0 0.0 0.0 0.00 0.19 0.00 95 1016.2
20260905113556 54 0 0.0 0.0 0.00 0.19 0.00 95 1016.2
20260905113105 54 0 0.0 0.0 0.00 0.19 0.00 95 1016.3
20260905112556 54 0 0.0 0.0 0.00 0.19 0.00 95 1016.4
20260905112055 54 0 0.0 0.0 0.00 0.19 0.00 95 1016.2
20260905111627 54 0 0.0 0.0 0.00 0.19 0.00 95 1016.2
20260905111055 54 0 0.0 0.0 0.00 0.19 0.00 95 1016.1
20260905110553 54 0 0.0 0.0 0.00 0.19 0.00 95 1016.2
20260905110112 54 0 0.0 0.0 0.00 0.19 0.00 95 1016.2
20260905105558 54 0 0.0 0.0 0.00 0.21 0.00 95 1016.0
20260905105057 54 0 0.0 0.0 0.00 0.21 0.00 95 1016.1
20260905104618 54 0 0.0 0.0 0.00 0.21 0.00 95 1016.2
20260905104101 54 0 0.0 0.0 0.00 0.21 0.00 95 1016.1
20260905103555 54 0 0.0 0.0 0.00 0.21 0.00 95 1016.1
20260905103102 54 0 0.0 0.0 0.00 0.21 0.00 95 1016.1
20260905102557 54 0 0.0 0.0 0.00 0.21 0.00 95 1016.2
20260905102057 54 0 0.0 0.0 0.00 0.21 0.00 95 1016.2
20260905101604 54 0 0.0 0.0 0.00 0.21 0.00 95 1016.2
20260905101058 54 0 0.0 0.0 0.00 0.21 0.00 95 1016.3
20260905100557 54 0 0.0 0.0 0.00 0.21 0.00 95 1016.2
20260905100105 55 0 0.0 0.0 0.00 0.21 0.00 95 1016.1
20260905095558 55 0 0.0 0.0 0.00 0.21 0.00 95 1016.1
20260905095057 55 0 0.0 0.0 0.00 0.21 0.00 95 1016.2
20260905094717 55 0 0.0 0.0 0.00 0.21 0.00 95 1016.3
20260905094101 55 0 0.0 0.0 0.00 0.21 0.00 95 1016.2
20260905093557 55 0 0.0 0.0 0.00 0.21 0.00 95 1016.1
20260905093128 55 0 0.0 0.0 0.00 0.21 0.00 95 1016.1
20260905092556 55 0 0.0 0.0 0.00 0.21 0.00 95 1016.0
20260905092057 55 0 0.0 0.0 0.00 0.21 0.00 95 1016.0
20260905091604 55 0 0.0 0.0 0.00 0.21 0.00 95 1016.0
20260905091059 55 0 0.0 0.0 0.00 0.21 0.00 95 1016.0
20260905090556 55 0 0.0 0.0 0.00 0.21 0.00 95 1016.0
20260905090103 55 0 0.0 0.0 0.00 0.21 0.00 95 1016.0
20260905085558 55 0 0.0 0.0 0.00 0.21 0.00 95 1016.0
20260905085057 55 0 0.0 0.0 0.00 0.21 0.00 95 1016.0
20260905084608 55 0 0.0 0.0 0.00 0.21 0.00 94 1016.0
20260905084057 55 0 0.0 0.0 0.00 0.21 0.00 94 1016.0
20260905083554 55 0 0.0 0.0 0.00 0.21 0.00 94 1016.0
20260905083103 55 0 0.0 0.0 0.00 0.21 0.00 94 1016.0
20260905082554 55 0 0.0 0.0 0.00 0.21 0.00 94 1016.0
20260905082100 55 0 0.0 0.0 0.00 0.21 0.00 94 1015.9
20260905081603 55 0 0.0 0.0 0.00 0.21 0.00 94 1015.9
20260905081057 55 0 0.0 0.0 0.00 0.21 0.00 94 1015.9
20260905080557 55 0 0.0 0.0 0.00 0.21 0.00 94 1015.8
20260905080121 55 0 0.0 0.0 0.00 0.21 0.00 94 1015.9
20260905075555 55 0 0.0 1.0 0.00 0.21 0.00 94 1015.9
20260905075054 55 0 0.0 1.0 0.00 0.21 0.00 94 1015.9
20260905074605 56 0 0.0 1.0 0.00 0.21 0.00 94 1015.8
20260905074058 56 0 0.0 0.0 0.00 0.21 0.00 94 1015.8
20260905073557 56 0 0.0 0.0 0.00 0.21 0.00 94 1015.7
20260905073111 56 0 0.0 0.0 0.00 0.21 0.00 94 1015.7
20260905072559 56 0 0.0 0.0 0.00 0.21 0.00 94 1015.8
20260905072057 56 0 0.0 0.0 0.00 0.21 0.00 94 1015.8
20260905071602 56 0 0.0 0.0 0.00 0.21 0.00 94 1015.8
20260905071056 56 0 0.0 0.0 0.00 0.21 0.00 94 1015.8
20260905070558 56 0 0.0 0.0 0.00 0.21 0.00 94 1015.8
20260905070104 56 0 0.0 0.0 0.00 0.21 0.00 94 1015.7
20260905065600 56 0 0.0 0.0 0.00 0.21 0.21 94 1015.7
20260905065058 56 0 0.0 1.0 0.00 0.21 0.21 94 1015.6
20260905064600 56 0 0.0 1.0 0.00 0.21 0.21 94 1015.6
20260905064058 56 0 0.0 1.0 0.00 0.21 0.21 93 1015.5
20260905063554 56 0 0.0 0.0 0.00 0.21 0.21 93 1015.6
20260905063108 56 0 0.0 0.0 0.00 0.21 0.21 93 1015.5
20260905062556 56 0 0.0 0.0 0.00 0.21 0.21 93 1015.4
20260905062135 56 0 0.0 2.0 0.00 0.21 0.21 93 1015.4
20260905062056 56 0 0.0 2.0 0.00 0.21 0.21 93 1015.4
20260905061606 56 0 0.0 2.0 0.00 0.21 0.21 93 1015.3
20260905061057 56 0 0.0 0.0 0.00 0.21 0.21 93 1015.3
20260905060556 56 0 0.0 0.0 0.00 0.21 0.21 92 1015.3
20260905060109 56 0 0.0 0.0 0.00 0.21 0.21 92 1015.3
20260905055555 56 0 0.0 0.0 0.00 0.21 0.21 93 1015.3
20260905055056 56 0 0.0 0.0 0.00 0.21 0.21 92 1015.3
20260905054606 56 0 0.0 0.0 0.00 0.21 0.21 92 1015.3
20260905054057 56 0 0.0 0.0 0.00 0.21 0.21 92 1015.3
20260905053600 56 0 0.0 0.0 0.00 0.21 0.21 92 1015.4
20260905053104 56 0 0.0 0.0 0.00 0.21 0.21 92 1015.4
20260905052558 56 0 0.0 0.0 0.00 0.21 0.21 92 1015.3
20260905052056 56 0 0.0 0.0 0.00 0.21 0.21 92 1015.3
20260905051611 56 0 0.0 0.0 0.00 0.21 0.21 92 1015.2
20260905051058 56 0 0.0 0.0 0.00 0.21 0.21 92 1015.2
20260905050556 56 0 0.0 1.0 0.00 0.21 0.21 91 1015.2
20260905050107 56 0 0.0 1.0 0.00 0.21 0.21 91 1015.2
20260905045554 56 0 0.0 1.0 0.00 0.21 0.21 91 1015.3
20260905045056 56 0 0.0 1.0 0.00 0.21 0.21 91 1015.2
20260905044604 56 0 0.0 1.0 0.00 0.21 0.21 91 1015.3
20260905044055 56 0 0.0 1.0 0.00 0.21 0.21 91 1015.3
20260905043554 57 0 0.0 0.0 0.00 0.21 0.21 90 1015.2
20260905043101 57 0 0.0 0.0 0.00 0.21 0.21 90 1015.2
20260905042558 57 0 0.0 1.0 0.00 0.21 0.21 90 1015.2
20260905042054 57 0 0.0 1.0 0.00 0.21 0.21 90 1015.1
20260905041611 57 0 0.0 0.0 0.00 0.21 0.21 90 1015.2
20260905041054 57 0 0.0 0.0 0.00 0.21 0.21 90 1015.1
20260905040555 57 0 0.0 0.0 0.00 0.21 0.21 90 1015.0
20260905040112 57 0 0.0 2.0 0.00 0.21 0.21 90 1015.1
20260905035555 57 0 0.0 2.0 0.00 0.21 0.21 89 1015.0
20260905035054 57 0 0.0 2.0 0.00 0.21 0.21 89 1014.9
20260905034607 57 0 0.0 2.0 0.00 0.21 0.21 89 1014.7
20260905034055 57 0 0.0 1.0 0.00 0.21 0.21 89 1014.7
20260905033554 58 0 0.0 1.0 0.00 0.21 0.21 89 1014.7
20260905033109 58 0 0.0 3.0 0.00 0.21 0.21 89 1014.7
20260905032555 58 0 1.0 3.0 0.00 0.21 0.21 88 1014.7
20260905032053 58 0 1.0 4.0 0.00 0.21 0.21 88 1014.7
20260905031613 58 0 1.0 4.0 0.00 0.21 0.21 88 1014.7
20260905031055 58 0 0.0 0.0 0.00 0.21 0.21 88 1014.6
20260905030554 59 0 0.0 0.0 0.00 0.21 0.21 88 1014.6
20260905030111 59 0 0.0 0.0 0.00 0.21 0.21 88 1014.6
20260905025555 59 0 0.0 0.0 0.00 0.21 0.21 88 1014.6
20260905025054 59 0 0.0 0.0 0.00 0.21 0.21 88 1014.5
20260905024612 59 0 0.0 0.0 0.00 0.21 0.21 87 1014.5
20260905024103 59 0 0.0 0.0 0.00 0.21 0.21 87 1014.5
20260905023558 60 0 0.0 0.0 0.00 0.21 0.21 87 1014.5
20260905023107 60 0 0.0 0.0 0.00 0.21 0.21 87 1014.5
20260905022557 60 0 0.0 0.0 0.00 0.21 0.21 87 1014.5